Погода в Тевризе

Погода в Тевризе : погода сейчас, прогноз погоды и архив. Всё, что Вы хотите узнать о погоде в Тевризе!

Хотите узнать прогноз погоды в Тевризе? Тогда Вам сюда: Погода в Тевризе

Поиск расширенной информации на нашем сайте:

Другие новости

Новости СМИ2

Главная страница сайта

Новости сайта

03.07.2017

Напоминаем, что на нашем специализированном сайте Метеоцентр.Азия вы можете получить высокодетализированные автоматические прогнозы погоды по пунктам России, СНГ и мира в авиационном формате (включающие направление и скорость ветра, видимость, явления погоды, количество и форму облачности, нижнюю и верхнюю границу облачности).


Погода в Тевризе - сегодня

Время (UTC), дата Ветер
(°,м/с) 
Видим.   Явления Облачность Т
(°С)
Тd
(°С)
f(%) Тe
(°С)
Pmin
(гПа)
dP
(гПа)
Po
(мм)
O2
(г/м3)
Тmin Tmax R s Состояние
почвы
09 09.12.17 090 (В) 8000 м  дымка  10/0 средняя, верхняя 
[Ac lent|Cc]
-9.3 -11 87 -13  1016.5  -1.8  756  316           
12 09.12.17 110 (В) н/о    н/о 
-10.7 -12.5 87 -15  1015.1  -1.4  755  318           
15 09.12.17 110 (В) 10 км    10/0 верхняя 
[Ci fib]
-11.2 -12.4 91 -15  1013.6  -1.6  754  318    -8.2       
18 09.12.17 120 (ЮВ) 4000 м  слаб. снег  10/0 средняя 
[As op]
-10 -10.8 94 -13  1012.6  -0.9  753  316           
21 09.12.17 120 (ЮВ) 4000 м  слаб. снег  10/0 средняя 
[As trans]
-8.9 -9.3 97 -12  1012.4  -0.2  753  315           
00 10.12.17 130 (ЮВ) 10 км  {снег}  10/10 540 м 
[Ns]
-7.5 -7.9 97 -9  1013.4  1.1  754  313           
03 10.12.17 150 (ЮВ) 20000 м    10/10 660 м 
[Sc]
-6.2 -6.4 98 -6  1014.9  1.5  755  312  -11.2    19  равномерный
сухой снег
100% 
06 10.12.17 180 (Ю) н/о    н/о 
-6.8 -6.9 99 -8  1016.4  1.4  756  313           
09 10.12.17 090 (В) 7000 м  снежные зёрна  10/10 210 м 
[St]
-6.7 -6.7 100 -8  1016.6  0.2  756  313           
12 10.12.17 090 (В) н/о    н/о 
-7.2 -7.2 100 -9  1017.8  1.2  757  314           
15 10.12.17 040 (СВ) 4000 м  дымка{снег}  10/10 240 м 
[St]
-7.1 -7.1 100 -7  1017  0.1  756  314    -5.9  0.2     
18 10.12.17 010 (С) 4000 м  слаб. снег  10/10 240 м 
[Ns]
-7.4 -7.4 100 -7  1017  756  314           
21 10.12.17 010 (С) 4000 м  слаб. снег  10/10 270 м 
[Ns]
-7.8 -7.8 100 -9  1017.1  -0.1  756  315           
00 11.12.17 020 (С) 4000 м  слаб. снег  10/10 300 м 
[Ns]
-8.3 -8.3 100 -10  1017.9  0.7  757  315           
03 11.12.17 060 (СВ) 6000 м  слаб. снег  10/10 600 м 
[Ns]
-7.9 -8 99 -8  1019.5  1.6  758  315  -8.4    23  равномерный
сухой снег
100% 
06 11.12.17 050 (СВ) н/о    н/о 
-7.8 -8 98 -8  1021.8  2.3  760  316           
09 11.12.17 060 (СВ) 5000 м  дымка{снег}  1/0 средняя 
[Ac lent]
-7.9 -8.9 93 -8  1023.5  1.7  761  317           
12 11.12.17 360 (С) н/о    н/о 
-11.9 -12.1 98 -12  1025.8  2.1  763  323           
15 11.12.17 тихо ()   4000 м  слаб. снег [диам. изморози 1 мм]  10/0 средняя 
[As op]
-10.2 -10.4 98 -10  1028  2.3  764  321    -6.9  0.6     
18 11.12.17 020 (С) 4000 м  слаб. снег [диам. изморози 4 мм]  10/0 средняя 
[As op]
-10.4 -10.5 99 -10  1029.8  1.8  766  322           
21 11.12.17 тихо ()   4000 м  слаб. снег [диам. изморози 6 мм]  10/0 средняя 
[As op]
-11.1 -11.4 98 -11  1031.1  1.3  767  323           
00 12.12.17 020 (С) 4000 м  дымка{снег} [диам. изморози 8 мм]  ясно 
-17.8 -18.7 93 -18  1032.5  1.1  768  332           
03 12.12.17 190 (Ю) 7000 м  слаб. снег [диам. изморози 10 мм]  10/0 верхняя 
[Cs]
-18.9 -20 91 -19  1034.5  769  335  -19    0.3  24  равномерный
сухой снег
100% 
06 12.12.17 тихо ()   н/о    н/о 
-16.6 -17.6 92 -17  1035.9  1.4  770  332  -20         
09 12.12.17 260 (З) 20000 м  [диам. изморози 0 мм]  6/0 верхняя 
[Ci fib]
-13.8 -14.5 94 -14  1036.3  0.5  771  328           
Время (UTC), дата Ветер
(°,м/с) 
Видим.   Явления Облачность Т
(°С)
Тd
(°С)
f(%) Тe
(°С)
Pmin
(гПа)
dP
(гПа)
Po
(мм)
O2
(г/м3)
Тmin Tmax R s Состояние
почвы

Для получения пояснительной информации подведите курсор к названию столбца.

ПОГОДА в Тевризе - архив

Всё, что Вы хотите узнать о погоде в Тевризе - удобно и подробно!

Выберите нужную дату (начиная с 1 января 2015* года) и нажмите кнопку "Найти".
Будут отображены архивные сводки погоды по пункту Тевриз, начиная с указанной даты.


Отображать данные в формате CSV (для использования в таблицах Excel)


Внимание! Наш архив погоды предназначен исключительно для личного некоммерческого использования в познавательных целях. Если Вам необходимы официальные справки о состоянии погоды (для производственных, юридических, коммерческих и т.п. целей), обращайтесь в органы Росгидромета.

*Примечание: данная дата относится к архиву по метеостанциям СССР (Россия, СНГ, Балтия).
Архив по метеостанциям Зарубежной Европы и Азии (кроме Китая) хранится 10 дней, по другим регионам земного шара (Китай, Африка, Америка, Австралия, Океания) - 1 день.

Тевриз - район местоположения метеостанции


Название, широта, долгота, высота метеостанции:
Тевриз 57.5°ш. 72.4°д. 67 м над ур. моря [Российская Федерация]

Дополнительная информация

В oтличие oт бoльшинства пoгoдных сайтoв мы публикуем пoдрoбную метеoинфoрмацию в детальнoм прoфессиoнальнoм фoрмате.

Характеристики температуры и влажнoсти вoздуха измеряются на высoте 2 м в тени вдали oт зданий и деревьев.
Скoрoсть ветра измеряется на высoте 10 м (на урoвне рoста челoвека скoрoсть ветра ниже в 1.5-2 раза). Если метеoстанция нахoдится в гoрoде или в лесу, тo скoрoсть ветра занижена на 2-4 м/с пo сравнению с oткрытым местoм. Скoрoсть ветра над акватoриями крупных рек и oзёр, а также на вершинах хoлмoв на 2-5 м/с выше, чем в oбычных услoвиях.
Атмoсфернoе давление в разных тoчках местнoсти мoжет значительнo oтличаться oт давления на метеoстанции, в зависимoсти oт услoвий рельефа (при пoдъёме на 10 м давление пoнижается примернo на 1 мм рт.ст.).